Overview Statistics Trail Chart Weather Telemetry Raw packets
 

This is the latest recevied weather packets stored in our database for station/object IZ5RIE-13. If no packets are shown the sender has not sent any weather packets the latest 10 day(s).

<< 13 14 15 16 17 18 19 >>
Time Temp. Humidity Pressure Rain* Wind** Luminosity Snow
1788441311 32.22° C 100% 1019.2 hPa - - - -
1788440411 31.67° C 100% 1019.2 hPa - - - -
1788439511 32.22° C 100% 1019.3 hPa - - - -
1788438611 32.22° C 100% 1019.5 hPa - - - -
1788437711 31.67° C 100% 1019.6 hPa - - - -
1788436811 32.22° C 100% 1019.4 hPa - - - -
1788435910 32.22° C 100% 1019.5 hPa - - - -
1788435010 32.78° C 100% 1019.6 hPa - - - -
1788434110 33.33° C 100% 1019.7 hPa - - - -
1788433210 33.33° C 100% 1019.9 hPa - - - -
1788432310 32.78° C 100% 1020 hPa - - - -
1788431410 32.78° C 100% 1020 hPa - - - -
1788430509 32.22° C 100% 1020.2 hPa - - - -
1788429609 32.22° C 100% 1020.3 hPa - - - -
1788428709 32.78° C 100% 1020.5 hPa - - - -
1788427809 32.78° C 100% 1020.4 hPa - - - -
1788426909 32.78° C 100% 1020.4 hPa - - - -
1788426009 32.78° C 100% 1020.4 hPa - - - -
1788425108 32.22° C 100% 1020.4 hPa - - - -
1788424208 31.67° C 100% 1020.4 hPa - - - -
1788423308 29.44° C 100% 1020.2 hPa - - - -
1788422408 27.78° C 100% 1020.2 hPa - - - -
1788422380 27.78° C 100% 1020.2 hPa - - - -
1788421480 27.22° C 100% 1020.1 hPa - - - -
1788421452 27.22° C 100% 1020.2 hPa - - - -

* Rain since midnight (hover to see other rain measurements)
** Current wind speed in m/s (hover to see current wind gust speed)